This demonstration page uses our WeatherBlox Daily Observations layout. Learn more.

Left ArrowRight Arrow

44.89941, -97.11507

Hourly Observations for April 2, 2019

Temp ( °F °C ) Dew Point ( °F °C ) Humidity (%) Winds ( mph kmh ) Pressure ( in mb ) Visibility ( mi km ) Precip ( " mm )
12:53 am 00:53 Clear 27 -2.8 25 -3.9 92 92 SW 9 15 30.06 1018 10 16 0.00 0.00
1:53 am 01:53 Clear 27 -2.8 24 -4.4 89 89 SW 9 15 30.04 1017 10 16 0.00 0.00
2:53 am 02:53 Clear 27 -2.8 25 -3.9 92 92 SW 8 13 30.02 1017 10 16 0.00 0.00
3:53 am 03:53 Clear 28 -2.2 25 -3.9 88 88 SW 9 15 30.01 1016 10 16 0.00 0.00
4:53 am 04:53 Clear 29 -1.7 26 -3.3 89 89 WSW 9 15 29.99 1016 10 16 0.00 0.00
5:53 am 05:53 Clear 28 -2.2 26 -3.3 92 92 SW 13 20 29.98 1015 10 16 0.00 0.00
6:53 am 06:53 Clear 28 -2.2 25 -3.9 88 88 SW 15 24 29.98 1015 10 16 0.00 0.00
7:23 am 07:23 Partly Cloudy 27 -2.8 25 -3.9 92 92 SW 15 24 30.02 1017 10 16 0.00 0.00
7:35 am 07:35 Mostly Cloudy 27 -2.8 25 -3.9 92 92 SW 18 30 30.02 1017 7 11 0.00 0.00
7:53 am 07:53 Cloudy 28 -2.2 26 -3.3 92 92 SW 17 28 29.98 1015 9 14 0.00 0.00
8:53 am 08:53 Mostly Cloudy 30 -1.1 27 -2.8 88 88 SW 17 28 29.98 1015 10 16 0.00 0.00
9:53 am 09:53 Sunny 35 1.7 31 -0.6 85 85 WSW 15 24 29.96 1015 10 16 0.00 0.00
10:53 am 10:53 Cloudy 37 2.8 30 -1.1 76 76 W 16 26 29.98 1015 10 16 0.00 0.00
11:10 am 11:10 Cloudy 37 2.8 31 -0.6 79 79 W 14 22 29.98 1015 10 16 0.00 0.00
11:32 am 11:32 Mostly Cloudy 40 4.4 32 0 73 73 W 17 28 29.98 1015 10 16 0.00 0.03
11:53 am 11:53 Partly Cloudy 41 5 32 0 70 70 W 17 28 29.97 1015 10 16 0.00 0.03
12:53 pm 12:53 Mostly Sunny 46 7.8 33 0.6 61 61 WNW 16 26 29.97 1015 10 16 0.00 0.00
1:53 pm 13:53 Mostly Sunny 46 7.8 32 0 58 58 WNW 15 24 29.96 1015 10 16 0.00 0.00
2:53 pm 14:53 Partly Cloudy 46 7.8 31 -0.6 56 56 WNW 16 26 29.97 1015 10 16 0.00 0.00
3:53 pm 15:53 Partly Cloudy 45 7.2 30 -1.1 56 56 WNW 20 31 29.98 1015 10 16 0.00 0.03
4:53 pm 16:53 Mostly Sunny 45 7.2 26 -3.3 48 48 NW 23 37 30.00 1016 10 16 0.00 0.00
5:53 pm 17:53 Mostly Sunny 43 6.1 24 -4.4 47 47 WNW 16 26 30.02 1017 10 16 0.00 0.00
6:53 pm 18:53 Mostly Sunny 40 4.4 22 -5.6 49 49 NW 14 22 30.04 1017 10 16 0.00 0.00
7:53 pm 19:53 Sunny 36 2.2 22 -5.6 57 57 NW 9 15 30.06 1018 10 16 0.00 0.00
8:53 pm 20:53 Clear 31 -0.6 21 -6.1 67 67 Calm 30.06 1018 10 16 0.00 0.00
9:53 pm 21:53 Clear 30 -1.1 23 -5 75 75 Calm 30.08 1019 10 16 0.00 0.00
10:53 pm 22:53 Clear 28 -2.2 21 -6.1 75 75 Calm 30.08 1019 10 16 0.00 0.00
11:53 pm 23:53 Clear 25 -3.9 22 -5.6 88 88 SSW 7 11 30.08 1019 10 16 0.00 0.00

Powered by AerisWeather